DELTA 1 DEB, 7041

Orbit data source: Space-Track

DELTA 1 DEB, 7041 is space debris in SSO originally from an American launch on Tue, 06 Nov 1973 UTC launched from the Air Force Western Test Range (AFWTR). Debris objects in space refer to the collection of defunct objects orbiting the Earth. Examples of debris include non-operational satellites, rocket bodies, and fragments generated from explosions, collisions, or faulty payload assembly.

Loading next visibility...
Identifier
7041, 1973-086AH
Orbit
SSO
Country
Flag of USUS
Related business
None
Manufacturer
Unknown
Mission
Spacecraft
Bus & Motor
Unknown
Mass
Unknown
Launch date (UTC)
1973-11-06 (52 years ago)
Launch vehicle
Unknown
Launch site
Air Force Western Test Range (AFWTR)
Object type
Payload
Rocket body
Debris
Shape & HBR
Unknown shape, 0.2 m
Radar Cross Section
Medium (>0.1 m² and <1 m²)

Expand to show TLE details & history
Last TLE update: 1 day ago

TLE from 1 day ago
0 DELTA 1 DEB
1 07041U 73086AH  25306.01556189  .00000483  00000-0  38282-2 0  9997
2 07041 101.5814 336.4370 0184564 287.0954 141.8841 12.37643087326495
Epoch: 2025-11-02T00:22Z
TLE epoch observation values (Epoch: 2025-11-02T00:22:24.547Z)
Latitude
67.31042°
Longitude
-99.89903°
Altitude
1,643.75 km
Speed
7.004 km/s
True Right ascension
20h 28m 57s
True Declination
67° 12' 05"
Sunlit
Object was in daylight at epoch
Visualization orbit readout
Latitude
Unknown
Longitude
Unknown
Altitude
Unknown
Speed
Unknown
Apparent Right ascension
Unknown
Apparent Declination
Unknown
Sunlit
N/A
Visualization observer readout
Local Sidereal Time
04:24:54
Azimuth
Unknown
Elevation
Unknown
Doppler factor
Unknown
Orbital elements
Apogee altitude
1,659.826 km
Perigee altitude
1,368.499 km
Semi-major axis
7,892.299 km
Eccentricity
0.01846
Inclination
101.5814°
RAAN
336.437°
Arg. of periapsis
287.0954°
True anomaly
143.16616°
Mean anomaly
141.8841°
Eccentric anomaly
142.52745°
Mean motion
3.09555 °/min
Orbital period
116.3 mins
BSTAR
0.0038282
Loading maneuver chart data...
Computing Atmospheric mass density...
Loading historical data...
Loading historical data...
Loading historical data...
Loading historical data...
Loading historical data...
Loading historical data...
Loading historical data...

Documentation

Showing up to 5 results
|